OAL892 FMMI-FMCH

Flight info

Callsign OAL892
Flight time 1h 23m
Altitude 38000
Route KEKIN1E TN UA401 GALBA GALBA1K
Aircraft B737/M-SDE2E3FGHIRWXY/LB1

Departure

Time 2026-05-05 18:19
Airport Ivato International Airport (FMMI)

Arrival

Time 2026-05-05 19:42
Airport Prince Said Ibrahim International Airport (FMCH)
Time Latitude Longitude Altitude Speed Heading
2026-05-05 17:46 -18.79830 47.47367 4131 ft 0 kts 188°
2026-05-05 18:11 -18.79833 47.47364 4131 ft 2 kts 218°
2026-05-05 18:12 -18.79831 47.47353 4138 ft 2 kts 305°
2026-05-05 18:12 -18.79817 47.47358 4141 ft 3 kts 39°
2026-05-05 18:12 -18.79806 47.47400 4131 ft 8 kts 82°
2026-05-05 18:12 -18.79803 47.47460 4132 ft 8 kts 90°
2026-05-05 18:13 -18.79804 47.47506 4132 ft 5 kts 90°
2026-05-05 18:13 -18.79796 47.47558 4136 ft 11 kts 67°
2026-05-05 18:13 -18.79759 47.47593 4135 ft 0 kts 11°
2026-05-05 18:15 -18.79757 47.47593 4135 ft 1 kts 10°
2026-05-05 18:15 -18.79724 47.47601 4133 ft 12 kts 14°
2026-05-05 18:15 -18.79643 47.47545 4133 ft 21 kts 283°
2026-05-05 18:15 -18.79621 47.47398 4134 ft 19 kts 278°
2026-05-05 18:16 -18.79603 47.47272 4131 ft 16 kts 278°
2026-05-05 18:16 -18.79586 47.47161 4131 ft 15 kts 279°
2026-05-05 18:16 -18.79565 47.47032 4133 ft 20 kts 279°
2026-05-05 18:16 -18.79544 47.46887 4131 ft 19 kts 278°
2026-05-05 18:17 -18.79526 47.46768 4139 ft 15 kts 278°
2026-05-05 18:17 -18.79512 47.46669 4131 ft 13 kts 278°
2026-05-05 18:17 -18.79499 47.46583 4131 ft 11 kts 279°
2026-05-05 18:17 -18.79474 47.46504 4131 ft 11 kts 310°
2026-05-05 18:18 -18.79462 47.46448 4135 ft 9 kts 208°
2026-05-05 18:18 -18.79486 47.46498 4140 ft 11 kts 90°
2026-05-05 18:18 -18.79500 47.46636 4139 ft 40 kts 97°
2026-05-05 18:18 -18.79581 47.47192 4131 ft 110 kts 99°
2026-05-05 18:19 -18.79745 47.48202 4137 ft 168 kts 100°
2026-05-05 18:19 -18.79939 47.49528 4600 ft 187 kts 99°
2026-05-05 18:19 -18.80154 47.50861 5679 ft 179 kts 101°
2026-05-05 18:19 -18.80370 47.52130 6494 ft 184 kts 102°
2026-05-05 18:20 -18.80583 47.53540 6846 ft 206 kts 97°
2026-05-05 18:20 -18.80695 47.54588 7040 ft 217 kts 96°
2026-05-05 18:20 -18.80382 47.56765 7329 ft 249 kts 65°
2026-05-05 18:20 -18.79122 47.58052 7772 ft 263 kts 27°
2026-05-05 18:21 -18.77305 47.58421 8316 ft 276 kts 360°
2026-05-05 18:21 -18.75381 47.57908 8715 ft 296 kts 337°
2026-05-05 18:21 -18.73661 47.56681 9469 ft 302 kts 315°
2026-05-05 18:21 -18.72259 47.55022 10346 ft 304 kts 310°
2026-05-05 18:22 -18.70883 47.53256 10780 ft 322 kts 309°
2026-05-05 18:22 -18.69406 47.51366 10977 ft 345 kts 310°
2026-05-05 18:22 -18.67830 47.49396 11469 ft 355 kts 311°
2026-05-05 18:22 -18.66209 47.47414 12133 ft 359 kts 311°
2026-05-05 18:23 -18.64557 47.45430 12852 ft 361 kts 311°
2026-05-05 18:23 -18.63449 47.44110 13306 ft 363 kts 311°
2026-05-05 18:23 -18.61186 47.41431 14173 ft 368 kts 311°
2026-05-05 18:23 -18.59472 47.39413 14736 ft 372 kts 311°
2026-05-05 18:24 -18.58326 47.38065 15118 ft 374 kts 311°
2026-05-05 18:24 -18.56580 47.36013 15708 ft 377 kts 311°
2026-05-05 18:24 -18.54824 47.33948 16279 ft 380 kts 311°
2026-05-05 18:24 -18.53050 47.31863 16837 ft 384 kts 311°
2026-05-05 18:25 -18.51262 47.29762 17399 ft 387 kts 311°
2026-05-05 18:25 -18.50044 47.28331 17783 ft 389 kts 311°
2026-05-05 18:25 -18.47638 47.25505 18520 ft 394 kts 311°
2026-05-05 18:25 -18.45957 47.23535 18971 ft 396 kts 311°
2026-05-05 18:26 -18.44015 47.21467 19477 ft 399 kts 319°
2026-05-05 18:26 -18.41826 47.19639 20011 ft 401 kts 322°
2026-05-05 18:26 -18.39579 47.17894 20496 ft 403 kts 323°
2026-05-05 18:26 -18.37321 47.16117 20991 ft 406 kts 322°
2026-05-05 18:27 -18.35078 47.14295 21483 ft 408 kts 321°
2026-05-05 18:27 -18.32832 47.12445 21969 ft 410 kts 322°
2026-05-05 18:27 -18.30362 47.10917 22406 ft 416 kts 340°
2026-05-05 18:27 -18.27605 47.10097 22907 ft 418 kts 344°
2026-05-05 18:28 -18.21948 47.08520 23764 ft 425 kts 344°
2026-05-05 18:28 -18.19085 47.07701 24130 ft 427 kts 343°
2026-05-05 18:28 -18.16215 47.06866 24506 ft 429 kts 343°
2026-05-05 18:29 -18.13321 47.06015 24859 ft 431 kts 343°
2026-05-05 18:29 -18.10426 47.05159 25213 ft 434 kts 342°
2026-05-05 18:29 -18.07510 47.04296 25570 ft 436 kts 342°
2026-05-05 18:29 -18.04576 47.03427 25903 ft 439 kts 342°
2026-05-05 18:30 -18.01630 47.02556 26250 ft 441 kts 342°
2026-05-05 18:30 -17.98670 47.01680 26590 ft 443 kts 342°
2026-05-05 18:30 -17.95684 47.00798 26927 ft 446 kts 342°
2026-05-05 18:30 -17.92690 46.99916 27243 ft 448 kts 342°
2026-05-05 18:31 -17.89670 46.99029 27587 ft 451 kts 342°
2026-05-05 18:31 -17.86645 46.98147 27908 ft 453 kts 342°
2026-05-05 18:31 -17.83603 46.97259 28223 ft 455 kts 342°
2026-05-05 18:31 -17.80542 46.96366 28498 ft 458 kts 342°
2026-05-05 18:32 -17.77469 46.95468 28778 ft 460 kts 342°
2026-05-05 18:32 -17.74371 46.94561 29071 ft 462 kts 342°
2026-05-05 18:32 -17.71303 46.93663 29365 ft 464 kts 342°
2026-05-05 18:32 -17.68186 46.92751 29652 ft 466 kts 341°
2026-05-05 18:33 -17.65050 46.91833 29934 ft 468 kts 341°
2026-05-05 18:33 -17.61903 46.90912 30195 ft 470 kts 341°
2026-05-05 18:33 -17.58736 46.89986 30417 ft 472 kts 341°
2026-05-05 18:33 -17.55576 46.89063 30658 ft 473 kts 341°
2026-05-05 18:34 -17.52397 46.88134 30874 ft 475 kts 342°
2026-05-05 18:34 -17.49198 46.87199 31067 ft 477 kts 341°
2026-05-05 18:34 -17.45998 46.86265 31358 ft 477 kts 341°
2026-05-05 18:34 -17.42812 46.85336 31726 ft 474 kts 341°
2026-05-05 18:35 -17.39645 46.84412 32118 ft 472 kts 341°
2026-05-05 18:35 -17.36482 46.83490 32461 ft 470 kts 341°
2026-05-05 18:35 -17.33331 46.82571 32766 ft 470 kts 341°
2026-05-05 18:35 -17.30180 46.81653 33102 ft 469 kts 341°
2026-05-05 18:36 -17.27087 46.80751 33418 ft 468 kts 341°
2026-05-05 18:36 -17.23956 46.79839 33735 ft 467 kts 341°
2026-05-05 18:36 -17.20822 46.78926 34036 ft 466 kts 341°
2026-05-05 18:36 -17.17694 46.78015 34336 ft 465 kts 341°
2026-05-05 18:37 -17.14586 46.77111 34652 ft 463 kts 341°
2026-05-05 18:37 -17.11488 46.76210 34964 ft 461 kts 341°
2026-05-05 18:37 -17.08403 46.75313 35261 ft 459 kts 341°
2026-05-05 18:37 -17.05333 46.74420 35538 ft 457 kts 341°
2026-05-05 18:38 -17.02259 46.73527 35828 ft 456 kts 341°
2026-05-05 18:38 -16.99207 46.72640 36096 ft 454 kts 342°
2026-05-05 18:38 -16.96166 46.71756 36334 ft 454 kts 342°
2026-05-05 18:38 -16.93127 46.70873 36576 ft 453 kts 342°
2026-05-05 18:39 -16.90095 46.69993 36851 ft 451 kts 342°
2026-05-05 18:39 -16.87072 46.69116 37132 ft 449 kts 342°
2026-05-05 18:39 -16.84065 46.68244 37385 ft 448 kts 342°
2026-05-05 18:39 -16.81058 46.67372 37615 ft 447 kts 342°
2026-05-05 18:40 -16.78066 46.66504 37853 ft 446 kts 342°
2026-05-05 18:40 -16.75074 46.65637 38056 ft 446 kts 342°
2026-05-05 18:40 -16.69102 46.63906 38036 ft 448 kts 342°
2026-05-05 18:41 -16.63112 46.62172 38037 ft 445 kts 342°
2026-05-05 18:41 -16.57163 46.60449 38035 ft 442 kts 342°
2026-05-05 18:42 -16.51249 46.58736 38036 ft 440 kts 342°
2026-05-05 18:42 -16.45350 46.57032 38038 ft 439 kts 342°
2026-05-05 18:43 -16.39446 46.55330 38051 ft 443 kts 342°
2026-05-05 18:43 -16.33444 46.53598 38039 ft 451 kts 342°
2026-05-05 18:44 -16.27378 46.51848 38031 ft 453 kts 342°
2026-05-05 18:44 -16.21336 46.50104 38031 ft 454 kts 342°
2026-05-05 18:45 -16.15244 46.48346 38028 ft 453 kts 342°
2026-05-05 18:45 -16.09174 46.46595 38024 ft 452 kts 342°
2026-05-05 18:46 -16.03134 46.44854 38025 ft 449 kts 342°
2026-05-05 18:46 -15.97126 46.43122 38022 ft 447 kts 342°
2026-05-05 18:47 -15.91138 46.41398 38022 ft 444 kts 342°
2026-05-05 18:47 -15.85192 46.39685 38022 ft 442 kts 342°
2026-05-05 18:48 -15.79302 46.37989 38025 ft 441 kts 342°
2026-05-05 18:48 -15.73392 46.36287 38018 ft 441 kts 342°
2026-05-05 18:49 -15.67509 46.34503 38009 ft 439 kts 335°
2026-05-05 18:49 -15.62267 46.31372 38024 ft 434 kts 320°
2026-05-05 18:50 -15.57538 46.27479 38024 ft 435 kts 319°
2026-05-05 18:50 -15.52804 46.23552 38023 ft 436 kts 319°
2026-05-05 18:51 -15.48042 46.19637 38023 ft 438 kts 320°
2026-05-05 18:51 -15.43252 46.15726 38024 ft 439 kts 320°
2026-05-05 18:52 -15.38442 46.11807 38022 ft 440 kts 320°
2026-05-05 18:52 -15.33624 46.07886 38022 ft 440 kts 320°
2026-05-05 18:53 -15.28832 46.03987 38015 ft 440 kts 320°
2026-05-05 18:53 -15.24016 46.00070 38020 ft 440 kts 320°
2026-05-05 18:54 -15.19205 45.96159 38017 ft 439 kts 320°
2026-05-05 18:54 -15.14404 45.92260 38019 ft 438 kts 320°
2026-05-05 18:55 -15.09607 45.88365 38016 ft 437 kts 320°
2026-05-05 18:55 -15.04828 45.84487 38014 ft 436 kts 320°
2026-05-05 18:56 -15.00050 45.80613 38016 ft 436 kts 320°
2026-05-05 18:56 -14.95288 45.76753 38016 ft 434 kts 320°
2026-05-05 18:57 -14.90531 45.72900 38006 ft 434 kts 320°
2026-05-05 18:57 -14.85782 45.69056 38010 ft 433 kts 320°
2026-05-05 18:58 -14.81035 45.65215 38010 ft 433 kts 320°
2026-05-05 18:58 -14.76322 45.61404 38007 ft 433 kts 320°
2026-05-05 18:59 -14.71578 45.57570 38012 ft 432 kts 320°
2026-05-05 18:59 -14.66844 45.53747 38004 ft 433 kts 320°
2026-05-05 19:00 -14.62094 45.49913 38004 ft 433 kts 320°
2026-05-05 19:00 -14.57343 45.46080 38016 ft 433 kts 320°
2026-05-05 19:01 -14.52588 45.42246 38007 ft 434 kts 320°
2026-05-05 19:01 -14.47828 45.38410 38016 ft 435 kts 320°
2026-05-05 19:02 -14.43087 45.34592 38010 ft 435 kts 320°
2026-05-05 19:02 -14.38306 45.30743 38005 ft 436 kts 321°
2026-05-05 19:03 -14.33513 45.26887 38007 ft 436 kts 321°
2026-05-05 19:03 -14.28722 45.23035 38002 ft 436 kts 321°
2026-05-05 19:04 -14.23934 45.19187 38004 ft 437 kts 321°
2026-05-05 19:04 -14.19134 45.15332 38005 ft 437 kts 321°
2026-05-05 19:05 -14.14369 45.11507 37999 ft 437 kts 321°
2026-05-05 19:05 -14.09574 45.07659 38006 ft 437 kts 321°
2026-05-05 19:06 -14.04772 45.03809 38007 ft 437 kts 321°
2026-05-05 19:06 -13.99976 44.99966 38007 ft 437 kts 321°
2026-05-05 19:07 -13.95989 44.96771 38002 ft 437 kts 321°
2026-05-05 19:07 -13.90378 44.92279 38009 ft 437 kts 321°
2026-05-05 19:08 -13.86387 44.89085 38004 ft 437 kts 321°
2026-05-05 19:08 -13.80804 44.84620 38002 ft 437 kts 321°
2026-05-05 19:09 -13.76779 44.81402 38003 ft 437 kts 321°
2026-05-05 19:09 -13.71977 44.77566 38004 ft 437 kts 321°
2026-05-05 19:10 -13.67202 44.73752 38006 ft 437 kts 321°
2026-05-05 19:10 -13.62393 44.69914 38003 ft 438 kts 321°
2026-05-05 19:11 -13.57579 44.66073 38005 ft 438 kts 321°
2026-05-05 19:11 -13.52767 44.62234 38005 ft 438 kts 321°
2026-05-05 19:12 -13.47946 44.58391 37719 ft 441 kts 321°
2026-05-05 19:12 -13.45535 44.56469 37428 ft 434 kts 321°
2026-05-05 19:12 -13.43168 44.54581 37006 ft 429 kts 321°
2026-05-05 19:13 -13.40819 44.52709 36634 ft 424 kts 321°
2026-05-05 19:13 -13.38491 44.50856 36252 ft 420 kts 321°
2026-05-05 19:13 -13.36213 44.49064 35866 ft 417 kts 323°
2026-05-05 19:13 -13.33819 44.47375 35368 ft 417 kts 326°
2026-05-05 19:14 -13.31375 44.45774 34968 ft 415 kts 327°
2026-05-05 19:14 -13.28935 44.44209 34574 ft 413 kts 326°
2026-05-05 19:14 -13.26503 44.42646 34170 ft 411 kts 326°
2026-05-05 19:14 -13.24092 44.41088 33762 ft 409 kts 326°
2026-05-05 19:15 -13.21698 44.39531 33348 ft 406 kts 326°
2026-05-05 19:15 -13.19319 44.37975 32956 ft 403 kts 326°
2026-05-05 19:15 -13.16960 44.36427 32574 ft 401 kts 326°
2026-05-05 19:15 -13.14617 44.34887 32190 ft 398 kts 326°
2026-05-05 19:16 -13.12296 44.33359 31825 ft 396 kts 326°
2026-05-05 19:16 -13.09981 44.31836 31457 ft 394 kts 326°
2026-05-05 19:16 -13.07683 44.30322 31069 ft 392 kts 326°
2026-05-05 19:16 -13.05385 44.28810 30686 ft 391 kts 326°
2026-05-05 19:17 -13.03102 44.27306 30335 ft 390 kts 326°
2026-05-05 19:17 -13.00822 44.25804 29947 ft 389 kts 326°
2026-05-05 19:17 -12.98552 44.24310 29543 ft 387 kts 326°
2026-05-05 19:17 -12.96289 44.22825 29141 ft 384 kts 326°
2026-05-05 19:18 -12.94046 44.21352 28758 ft 382 kts 326°
2026-05-05 19:18 -12.91815 44.19887 28380 ft 379 kts 326°
2026-05-05 19:18 -12.89625 44.18449 28023 ft 377 kts 327°
2026-05-05 19:18 -12.87429 44.17006 27654 ft 375 kts 326°
2026-05-05 19:19 -12.85237 44.15571 27285 ft 372 kts 327°
2026-05-05 19:19 -12.83053 44.14150 26916 ft 371 kts 327°
2026-05-05 19:19 -12.80885 44.12734 26547 ft 369 kts 327°
2026-05-05 19:19 -12.78722 44.11317 26181 ft 368 kts 327°
2026-05-05 19:20 -12.76572 44.09907 25806 ft 367 kts 327°
2026-05-05 19:20 -12.74426 44.08499 25442 ft 366 kts 327°
2026-05-05 19:20 -12.72278 44.07089 25066 ft 365 kts 327°
2026-05-05 19:20 -12.70139 44.05686 24715 ft 365 kts 327°
2026-05-05 19:21 -12.68005 44.04286 24348 ft 364 kts 328°
2026-05-05 19:21 -12.65870 44.02886 23979 ft 364 kts 328°
2026-05-05 19:21 -12.63743 44.01492 23619 ft 363 kts 328°
2026-05-05 19:21 -12.61616 44.00099 23191 ft 363 kts 328°
2026-05-05 19:22 -12.59497 43.98710 22825 ft 360 kts 328°
2026-05-05 19:22 -12.57397 43.97335 22464 ft 358 kts 328°
2026-05-05 19:22 -12.55299 43.95961 22041 ft 358 kts 328°
2026-05-05 19:22 -12.53207 43.94591 21611 ft 357 kts 328°
2026-05-05 19:23 -12.51113 43.93220 21225 ft 356 kts 328°
2026-05-05 19:23 -12.49034 43.91859 20896 ft 353 kts 329°
2026-05-05 19:23 -12.46972 43.90510 20549 ft 348 kts 329°
2026-05-05 19:23 -12.44943 43.89182 20079 ft 346 kts 329°
2026-05-05 19:24 -12.42923 43.87859 19590 ft 345 kts 329°
2026-05-05 19:24 -12.40899 43.86535 19212 ft 345 kts 329°
2026-05-05 19:24 -12.38879 43.85214 18868 ft 344 kts 329°
2026-05-05 19:24 -12.36866 43.83898 18521 ft 343 kts 329°
2026-05-05 19:25 -12.34887 43.82604 18175 ft 342 kts 330°
2026-05-05 19:25 -12.32884 43.81294 17808 ft 340 kts 330°
2026-05-05 19:25 -12.30895 43.79992 17463 ft 337 kts 330°
2026-05-05 19:25 -12.28930 43.78706 17123 ft 335 kts 330°
2026-05-05 19:26 -12.26967 43.77423 16787 ft 332 kts 330°
2026-05-05 19:26 -12.25035 43.76162 16472 ft 330 kts 330°
2026-05-05 19:26 -12.23109 43.74898 16143 ft 328 kts 328°
2026-05-05 19:26 -12.21516 43.73237 15799 ft 331 kts 304°
2026-05-05 19:27 -12.20514 43.71128 15518 ft 330 kts 294°
2026-05-05 19:27 -12.19691 43.68939 15168 ft 329 kts 292°
2026-05-05 19:27 -12.18911 43.66747 14861 ft 328 kts 291°
2026-05-05 19:27 -12.18135 43.64556 14523 ft 327 kts 292°
2026-05-05 19:28 -12.17355 43.62377 14210 ft 326 kts 292°
2026-05-05 19:28 -12.16570 43.60206 13878 ft 325 kts 292°
2026-05-05 19:28 -12.15782 43.58045 13535 ft 324 kts 292°
2026-05-05 19:28 -12.14992 43.55893 13208 ft 322 kts 292°
2026-05-05 19:29 -12.14207 43.53760 12884 ft 320 kts 293°
2026-05-05 19:29 -12.13426 43.51643 12569 ft 317 kts 293°
2026-05-05 19:29 -12.12650 43.49540 12261 ft 315 kts 293°
2026-05-05 19:29 -12.11879 43.47455 11952 ft 313 kts 293°
2026-05-05 19:30 -12.11123 43.45410 11653 ft 311 kts 293°
2026-05-05 19:30 -12.10361 43.43351 11351 ft 309 kts 293°
2026-05-05 19:30 -12.09604 43.41306 11046 ft 307 kts 293°
2026-05-05 19:30 -12.08852 43.39273 10714 ft 306 kts 293°
2026-05-05 19:31 -12.08102 43.37245 10416 ft 304 kts 293°
2026-05-05 19:31 -12.07357 43.35232 10160 ft 301 kts 293°
2026-05-05 19:31 -12.06385 43.33412 9953 ft 287 kts 317°
2026-05-05 19:31 -12.04734 43.32387 9541 ft 277 kts 345°
2026-05-05 19:32 -12.02910 43.31769 9076 ft 276 kts 343°
2026-05-05 19:32 -12.01109 43.31082 8595 ft 276 kts 342°
2026-05-05 19:32 -11.99318 43.30383 8110 ft 275 kts 342°
2026-05-05 19:32 -11.97561 43.29690 7942 ft 263 kts 342°
2026-05-05 19:33 -11.95903 43.29032 7829 ft 248 kts 342°
2026-05-05 19:33 -11.94336 43.28408 7713 ft 235 kts 342°
2026-05-05 19:33 -11.92844 43.27814 7589 ft 224 kts 342°
2026-05-05 19:33 -11.91427 43.27294 7390 ft 213 kts 346°
2026-05-05 19:34 -11.90016 43.26835 6970 ft 213 kts 346°
2026-05-05 19:34 -11.88601 43.26380 6564 ft 214 kts 346°
2026-05-05 19:34 -11.87196 43.25925 6297 ft 206 kts 346°
2026-05-05 19:35 -11.84589 43.25074 5861 ft 188 kts 346°
2026-05-05 19:35 -11.83342 43.24667 5510 ft 188 kts 346°
2026-05-05 19:35 -11.82089 43.24258 5126 ft 190 kts 345°
2026-05-05 19:35 -11.80853 43.23853 4818 ft 189 kts 346°
2026-05-05 19:36 -11.79588 43.23439 4502 ft 185 kts 346°
2026-05-05 19:36 -11.78439 43.23060 4415 ft 168 kts 345°
2026-05-05 19:36 -11.77309 43.22888 4008 ft 164 kts 15°
2026-05-05 19:36 -11.76204 43.23116 3679 ft 161 kts 11°
2026-05-05 19:37 -11.75094 43.23299 3310 ft 162 kts 12°
2026-05-05 19:37 -11.73974 43.23490 3171 ft 168 kts 12°
2026-05-05 19:37 -11.72817 43.23695 3078 ft 166 kts 12°
2026-05-05 19:37 -11.71691 43.23896 3049 ft 162 kts 12°
2026-05-05 19:38 -11.70584 43.24094 3035 ft 162 kts 13°
2026-05-05 19:38 -11.69457 43.24296 2873 ft 166 kts 12°
2026-05-05 19:38 -11.68323 43.24500 2682 ft 162 kts 12°
2026-05-05 19:38 -11.67214 43.24699 2469 ft 163 kts 11°
2026-05-05 19:39 -11.66099 43.24899 2256 ft 163 kts 11°
2026-05-05 19:39 -11.64980 43.25099 2050 ft 164 kts 12°
2026-05-05 19:39 -11.63850 43.25303 1828 ft 165 kts 12°
2026-05-05 19:39 -11.62737 43.25502 1635 ft 161 kts 11°
2026-05-05 19:40 -11.61640 43.25700 1434 ft 159 kts 12°
2026-05-05 19:40 -11.60549 43.25894 1245 ft 160 kts 11°
2026-05-05 19:40 -11.59452 43.26078 1140 ft 160 kts 11°
2026-05-05 19:40 -11.58358 43.26259 1108 ft 155 kts 14°
2026-05-05 19:41 -11.57289 43.26474 898 ft 158 kts 13°
2026-05-05 19:41 -11.56190 43.26672 521 ft 162 kts 11°
2026-05-05 19:41 -11.55086 43.26901 227 ft 160 kts
2026-05-05 19:41 -11.54006 43.27082 75 ft 151 kts
2026-05-05 19:42 -11.53144 43.27231 87 ft 94 kts
2026-05-05 19:42 -11.52668 43.27314 85 ft 55 kts 11°
2026-05-05 19:42 -11.52449 43.27380 87 ft 13 kts 23°
2026-05-05 19:42 -11.52427 43.27343 86 ft 7 kts 213°
2026-05-05 19:43 -11.52483 43.27333 85 ft 12 kts 183°
2026-05-05 19:43 -11.52595 43.27325 87 ft 20 kts 187°
2026-05-05 19:43 -11.52753 43.27297 86 ft 26 kts 190°
2026-05-05 19:43 -11.52934 43.27266 87 ft 26 kts 189°
2026-05-05 19:44 -11.53109 43.27235 83 ft 25 kts 189°
2026-05-05 19:44 -11.53278 43.27206 88 ft 24 kts 190°
2026-05-05 19:44 -11.53443 43.27176 83 ft 25 kts 190°
2026-05-05 19:44 -11.53589 43.27150 76 ft 14 kts 188°
2026-05-05 19:45 -11.53660 43.27185 77 ft 12 kts 100°
2026-05-05 19:45 -11.53674 43.27257 78 ft 9 kts 101°
2026-05-05 19:45 -11.53684 43.27311 77 ft 8 kts 101°
2026-05-05 19:45 -11.53716 43.27361 73 ft 10 kts 130°
2026-05-05 19:46 -11.53718 43.27411 74 ft 0 kts 42°